PROGRESS-MS 20 (52795 NORAD) Tracking and Keplerian Element Data

This shows tracking and keplerian element data for the satellite.

Feedback or suggestion? Click here.




ElementValue
Catalog52795
NamePROGRESS-MS 20
Epoch Orbit34895
Epoch Day192.52051451
Epoch Year2022
RAAN216.0724
Inclination51.6431
Eccentricity0.000467
Argument of Perigee0.04
Mean Anonmoly154.8995
Mean Motion15.49902019
Decay Rate5.84E-05
L11 52795U 22059A 22192.52051451 .00005840 00000+0 11061-3 0 9993
L22 52795 51.6431 216.0724 0004670 0.0400 154.8995 15.49902019348953

Live tracking and technical data element details for PROGRESS-MS 20 (NORAD 52795). PROGRESS-MS 20 can be tracked NOW for your location showing map with azimuth and elevation plus other details from your city location.

Track the satellite on the map from your city or location and see movement details for azimuth, elevation, latitude, longitude, range, height, and movement on the map or in text.







IsCatalogInMostPopularTable: catalog: 52795, numindb: 5
Update: records affected: 1



GetName: 52795 PROGRESS-MS 20

Hit Count: updated at: Sat, 13 Aug 2022 23:40:59 GMT